www.pogodaiklimat.ru

Погода и климат >> Архив погоды >> Россия >> Камчатский край >> Мыс Лопатка


ПОГОДА на Мысе Лопатка

  • Прогноз погоды на Мысе Лопатка
  • Монитор погоды на Мысе Лопатка

АРХИВ ПОГОДЫ на Мысе Лопатка

Время (UTC), дата Ветер
(напр.,м/с)
 
Видим.   Явления Облачность Т
(С)
Тd
(С)
f
(%)
Тe
(С)
Тes
(С)
Комфортность P
(гПа)
Po
(гПа)
Тmin
(С)
Tmax
(С)
R
(мм)
R24
(мм)
S
(см)
03 9.09 ЮВ 10-12
{12}
10 км {ливн. осадки} 10/10 300 м
[St]
+9.9 +9.5 97 +5 +5 1002.2 996.1
06 9.09 Ю 11-14
{14}
4000 м дымка {ливн. осадки} 10/10 300 м
[St]
+9.6 +9.1 97 +5 +5 998.7 992.7
09 9.09 В 5
{14}
500 м туман ?/? +9.6 +9.1 97 +6 +6 998.7 991.5 +10.7 1
12 9.09 В 6
{11}
20 км {туман} 10/10 300 м
[St]
+10.1 +9.8 98 +6 +6 997.2 991.2
15 9.09 З 16-27
{29}
20 км 10/10 300 м
[St]
+17.1 +9.2 60 +15 +15 996.3 990.4
18 9.09 З 5
{27}
20 км 10/10 300 м
[St]
+11.6 +7.9 78 +9 +9 999.8 993.9
21 9.09 З 12-17
{19}
20 км 9/9 300 м
[St]
+10.5 +7.8 83 +6 +6 1000.1 994.1 +9.9
00 10.09 СЗ 18-22
{23}
20 км 10/10 300 м
[St]
+10.3 +7.9 85 +5 +5 1000.5 994.5
03 10.09 З 13-17
{22}
50 км 9/6 600 м
[Sc Ac trans Ci fib]
+10.9 +8.1 83 +6 +6 1001.4 995.3
06 10.09 СЗ 13-17
{19}
50 км 8/0
[Ac trans Ci]
+9.9 +8.3 90 +5 +5 1001.7 995.7
09 10.09 СЗ 11-14
{17}
20 км 3/0
[Ac trans]
+9.2 +8.4 95 +4 +4 1001.3 995.3 +11.2
12 10.09 СЗ 13-16
{17}
20 км 8/8 600 м
[Sc]
+9.4 +8.7 95 +4 +4 1001.4 995.4
15 10.09 СЗ 13-15
{18}
20 км 10/10 600 м
[Sc]
+9.4 +8.8 96 +4 +4 1001.6 995.5
18 10.09 СЗ 12-15
{16}
20 км 10/10 600 м
[Sc]
+9.1 +7.8 92 +4 +4 1003.4 997.3
21 10.09 СЗ 9-12
{15}
20 км 10/10 600 м
[Sc]
+9.7 +7.9 89 +5 +5 1004.9 998.8 +8.8
00 11.09 СЗ 14-17
{18}
20 км 9/9 600 м
[Sc]
+10.7 +8.5 86 +6 +6 1005.8 999.7
03 11.09 СЗ 15-18
{19}
50 км 3/3 600 м
[Sc]
+10.6 +8.4 86 +5 +5 1006.2 1000.1
06 11.09 СЗ 15-19
{21}
20 км 4/4 600 м
[Sc]
+9.9 +8.5 91 +4 +4 1006.9 1000.9
09 11.09 СЗ 10-13
{19}
20 км 10/10 300 м
[St]
+9.7 +8.6 93 +5 +5 1009.2 1003.1 +10.7
12 11.09 СЗ 12-14
{14}
20 км 9/9 600 м
[Sc]
+9.3 +8.5 95 +4 +4 1009.9 1003.8
15 11.09 СЗ 14-17
{18}
20 км 10/10 600 м
[Sc]
+9.2 +8.1 93 +3 +3 1010.3 1004.2
18 11.09 СЗ 11-13
{17}
20 км ясно +8.9 +7.9 93 +4 +4 1011.9 1005.8
21 11.09 СЗ 11-14
{14}
50 км 9/0
[Ac trans Ci fib]
+9.1 +8.2 94 +4 +4 1012.9 1006.8 +8.9
00 12.09 СЗ 11-13
{14}
50 км 9/0
[Ac trans Ci fib]
+10.0 +8.7 92 +5 +5 1012.7 1006.6
03 12.09 СЗ 10-12
{15}
50 км 9/0
[Ac trans Ci fib]
+9.5 +8.1 91 +5 +5 1012.0 1005.9
06 12.09 СЗ 8-11
{12}
50 км 9/3 600 м
[Sc Ac trans Ci fib]
+9.5 +7.9 90 +5 +5 1012.6 1006.5
09 12.09 С 10-12
{13}
20 км 10/6 600 м
[Sc Ac trans]
+9.7 +7.2 84 +5 +5 1011.2 1005.1 +10.7
12 12.09 С 4
{12}
20 км 10/10 600 м
[Sc]
+9.0 +6.7 85 +6 +6 1011.6 1005.5
15 12.09 С 4 20 км 9/6 600 м
[Sc Ac trans]
+8.6 +7.3 92 +5 +5 1009.9 1003.8
18 12.09 В 4 20 км 9/9 600 м
[Sc]
+8.8 +6.1 83 +6 +6 1009.3 1003.2
21 12.09 В 7-11
{12}
50 км 9/9 600 м
[Sc]
+10.1 +6.3 77 +6 +6 1009.6 1003.5 +7.9
00 13.09 В 10-15
{15}
50 км 6/0
[Ac trans]
+12.1 +8.8 80 +8 +9 1008.8 1002.8
03 13.09 В 10-14
{16}
50 км 6/0
[Ac trans Ci fib]
+13.4 +3.4 51 +11 +11 1008.2 1002.2
06 13.09 СЗ 4
{14}
50 км 8/0
[Ac trans Ci]
+11.4 +8.0 80 +9 +10 1008.0 1002.0
09 13.09 З 1 20 км 8/3 1000 м
[Sc Ac trans]
+9.8 +7.4 85 +9 +9 1009.1 1003.0 +14.0
12 13.09 СЗ 4 20 км 8/3 1000 м
[Sc Ac trans]
+8.7 +7.9 95 +5 +5 1009.3 1003.2
21 13.09 СЗ 3-10
{12}
50 км 8/8 600 м
[Sc]
+8.5 +7.8 95 +6 +6 1009.6 1003.4 +8.5
03 14.09 СЗ 9-11
{11}
50 км 4/4 600 м
[Sc]
+11.1 +8.0 81 +7 +8 1012.0 1006.0
21 14.09 Ю 7-10
{11}
50 км 10/10 600 м
[Sc]
+10.2 +6.4 77 +7 +7 1012.9 1006.8 +7.9
00 15.09 Ю 8-11
{13}
50 км 10/10 600 м
[Sc]
+11.0 +7.9 81 +7 +7 1012.3 1006.3
03 15.09 Ю 6
{13}
10 км в посл. час ливневой дождь 10/10 300 м
[St]
+10.5 +9.7 95 +7 +7 1012.1 1006.1
06 15.09 З 2
{10}
10 км {ливн. осадки} 10/10 300 м
[St]
+10.6 +9.9 95 +9 +9 1013.0 1006.9
12 15.09 СЗ 5 500 м туман ?/? +8.8 +8.4 97 +5 +5 1016.6 1010.4

 

Местоположение метеостанции Мыс Лопатка (Камчатский край, Россия): широта 50.87 долгота 156.60 высота над уровнем моря 50 м.

В архиве по умолчанию представлена погода на Мысе Лопатка за последнюю неделю. Архивные данные за месяц целиком и за предыдущие месяцы, начиная с января 2011 года, Вы можете получить, выбрав интересующий диапазон дат из раскрывающегося списка и нажав кнопку "Ввод!".


*Определитесь, кто Вы:
робот инопланетянин человек

Внимание! Время в таблицах - всемирное. Для получения местного времени необходимо прибавить поправку, которая равна 12 ч.

Смотрите также архив погоды в соседних городах и на ближайших метеорологических станциях:

Погода в Северо-Курильске (Сахалинская область, Россия) (41 км)
Погода в Озерной (Камчатский край, Россия) (69 км)
Погода в Водопадной (Камчатский край, Россия) (144 км)
Погода в Большерецке (Камчатский край, Россия) (219 км)
Погода в Начиках (Камчатский край, Россия) (261 км)
Погода в Петропавловск-Камчатском (Камчатский край, Россия) (261 км)
Погода в Петропавловском Маяке (Камчатский край, Россия) (266 км)
Погода в Сосновке (Камчатский край, Россия) (272 км)
Погода в Петропавловск-Камч. 2 (Камчатский край, Россия) (278 км)
Погода в Пущино (Камчатский край, Россия) (380 км)

Пояснения к столбцам:

Ветер - указаны скорость ветра в м/с - средняя за 10 мин, порывы в срок и между сроками (в фигурных скобках) и направление, откуда дует ветер: С - северный, СВ - северо-восточный, В - восточный, ЮВ - юго-восточный, Ю - южный, ЮЗ - юго-западный, З - западный, СЗ - северо-западный.
Видимость - горизонтальная дальность видимости в метрах или километрах. При видимости от 1 до 10 км при отсутствии осадков обычно наблюдается дымка, при ухудшении видимости до 1 км и менее - туман. В сухую погоду видимость может ухудшаться дымом, пылью или мглою.
Явления - указаны атмосферные явления, наблюдавшиеся в срок или в последний час перед сроком; фигурными скобками обозначены явления, наблюдавшиеся между сроками (за 1-3 часа до срока); квадратными скобками обозначены град или гололедные отложения с указанием их диаметра в мм.
Облачность - указаны через наклонную черту общая и нижняя облачность в баллах и высота нижней границы облаков в метрах; квадратными скобками обозначены формы облаков: Ci - перистые, Cs - перисто-слоистые, Cc - перисто-кучевые, Ac - высококучевые, As - высокослоистые, Sc - слоисто-кучевые, Ns - слоисто-дождевые, Cu - кучевые, Cb - кучево-дождевые. Подробнее классификацию облаков см. в Атласе облаков (PDF).
T - Температура воздуха - температура, измеренная на высоте 2 м над землей.
Td - Температура точки росы - температура, при понижении до которой содержащийся в воздухе водяной пар достигнет насыщения.
f - Относительная влажность воздуха - влажноcть воздуха, измеренная на высоте 2 м над землей.
Te - Эффективная температура - температура, которую ощущает одетый по сезону человек в тени. Характеристика душности погоды. При расчете учитывается влияние влажности воздуха и скорости ветра на теплоощущения человека.
Tes - Эффективная температура на солнце - температура, которую ощущает человек, с поправкой на солнечный нагрев. Характеристика знойности погоды. Зависит от высоты солнца над горизонтом, облачности и скорости ветра. Ночью, в пасмурную погоду, а также при ветре 12 м/с и более поправка равна нулю.
P - Атмосферное давление - приведенное к уровню моря атмосферное давление.
Po - Атмосферное давление - измеренное на уровне метеостанции атмосферное давление.
Tmin - Минимальная температура - минимум температуры воздуха на высоте 2 м над землей.
Tmax - Максимальная температура - максимум температуры воздуха на высоте 2 м над землей.
R - Количество осадков - Количество выпавших осадков за период времени, мм. При наведении курсора мыши на число - период времени, за который выпало указанное количество осадков.
R24 - Количество осадков - Количество выпавших осадков за 24 часа, мм.
S - Снежный покров - Высота снежного покрова, см. При наведении курсора мыши на число - состояние снежного покрова и степень покрытия местности в баллах.